sat.trackr.live / text

‹ back to catalog

STARLINK-11523 [DTC]

NORAD 62565 · 2025-006M

PAYLOAD ACTIVE UNKNOWN

§ Identity

Operator
Country
US
Launch date
2025-01-10
Launch site
AFETR
Launch vehicle
Mass (kg)
RCS (m²)

Purposes: comms

External: N2YO · Heavens-Above · Gunter

§ Orbital elements

Epoch: 2026-09-20T20:25:39.647712Z

Period
91.67 min
Inclination
43.0013°
Eccentricity
0.0001620
Mean motion
15.70834219 rev/d
Perigee alt
355.4 km
Apogee alt
357.6 km
Semi-major
6,734.6 km
B*
9.4965e-4
RAAN
43.7557°
Arg perigee
310.1904°
Mean anomaly
49.8822°
Rev number
9,729

§ Raw data

STARLINK-11523 [DTC]1 62565U 25006M   26263.85115333  .00123197  00000+0  94965-3 0  99932 62565  43.0013  43.7557 0001620 310.1904  49.8822 15.70834219 97295

JSON: /api/v1/satellites/62565 · /tle

For live sub-satellite position, see the globe view (requires WebGL).

§ Visibility from observer

Set your observer location to see the next 7 days of passes ≥ 10°. The values pass through the URL so the page stays shareable.

No JS? Fill the form by hand. The geolocation button needs JavaScript.